EKRAN 2 DEB, 29014

Orbit data source: Space-Track

EKRAN 2 DEB, 29014 is space debris in GEO originally from a launch on Tue, 20 Sep 1977 UTC launched from the Tyuratam Missile And Space Complex (TTMTR). Debris objects in space refer to the collection of defunct objects orbiting the Earth. Examples of debris include non-operational satellites, rocket bodies, and fragments generated from explosions, collisions, or faulty payload assembly.

Not visible in the next 10 days
Identifier
29014, 1977-092K
Orbit
GEO
Country
Flag of CISCIS
Related business
Manufacturer
Unknown
Mission
Spacecraft
Bus & Motor
Unknown
Mass
Unknown
Launch date (UTC)
1977-09-20 (49 years ago)
Launch vehicle
Unknown
Launch site
Tyuratam Missile And Space Complex (TTMTR)
Object type
Payload
Rocket body
Debris
Shape & HBR
Unknown shape, 1.1 m
Radar Cross Section
Large (>1 m²)

Expand to show TLE details & history
Last TLE update: 2 days ago

TLE from 2 days ago
0 EKRAN 2 DEB
1 29014U 77092K   26171.21162073 -.00000053  00000-0  00000+0 0  9998
2 29014   4.1256 274.2224 0019612 347.8516 252.0329  1.00158958 47306
Epoch: 2026-06-20T05:04Z
TLE epoch observation values (Epoch: 2026-06-20T05:04:44.031Z)
Latitude
-3.55813°
Longitude
169.22089°
Altitude
35,844.138 km
Speed
3.072 km/s
True Right ascension
10h 15m 20s
True Declination
-3° 33' 16"
Sunlit
Object was in daylight at epoch
Visualization orbit readout
Latitude
Unknown
Longitude
Unknown
Altitude
Unknown
Speed
Unknown
Apparent Right ascension
Unknown
Apparent Declination
Unknown
Sunlit
N/A
Visualization observer readout
Local Sidereal Time
01:06:02
Azimuth
Unknown
Elevation
Unknown
Doppler factor
Unknown
Orbital elements
Apogee altitude
35,902.073 km
Perigee altitude
35,736.558 km
Semi-major axis
42,197.453 km
Eccentricity
0.00196
Inclination
4.1256°
RAAN
274.2224°
Arg. of periapsis
347.8516°
True anomaly
251.81928°
Mean anomaly
252.0329°
Eccentric anomaly
251.92608°
Mean motion
0.25039 °/min
Orbital period
1,437.77 mins
BSTAR
0
Loading maneuver chart data...
Computing Atmospheric mass density...
Loading historical data...
Loading historical data...
Loading historical data...
Loading historical data...
Loading historical data...
Loading historical data...
Loading historical data...

Documentation

Showing up to 5 results
|